Location: Unspecified
(0.0000°N, 0.0000°E)
Time: 08:15:51
(UTC+00:00)

GALILEO-FM3 - Visible Passes

Search period start: 26 November 2022 00:00
Search period end: 06 December 2022 00:00
Orbit: 23216 x 23228 km, 55.2° (Epoch: 24 November)

Date Brightness Start Highest point End Pass type
(mag) Time Alt. Az. Time Alt. Az. Time Alt. Az.
26 Nov ? 00:13:44 10° SSW 04:31:50 85° E 08:18:51 10° NNE visible
27 Nov ? 06:56:19 10° SW 15:44:10 71° E 19:07:39 10° SSE visible
28 Nov ? 17:33:32 10° NW 19:48:49 31° W 06:00:31 10° NNE daylight
30 Nov ? 04:21:51 10° SW 07:01:40 43° W 16:53:04 10° SSE visible
01 Dec ? 15:14:15 10° NNW 18:14:17 55° W 03:42:42 10° NE visible
03 Dec ? 02:07:07 10° SSW 05:26:45 69° W 14:23:04 10° SE visible
04 Dec ? 12:57:24 10° NNW 16:39:07 82° W 21:10:59 10° SE visible
